DW8947 Weather Reports


time (UTC)temp
C
wind
direction
speed
KPH
gust
KPH
rain 1hr
cm
rain 24hr
cm
rain mn
cm
humidity
%
barometer
mb
20260504043704 20 6 0.0 3.2 0.00 0.00 0.00 46 1007.5
20260504042704 20 34 0.0 3.2 0.00 0.00 0.00 48 1007.4
20260504042204 20 34 0.0 3.2 0.00 0.00 0.00 45 1007.5
20260504041204 20 73 0.0 3.2 0.00 0.00 0.00 46 1007.4
20260504040703 20 94 1.6 3.2 0.00 0.00 0.00 44 1007.3
20260504035204 20 96 0.0 3.2 0.00 0.00 0.00 45 1007.2
20260504034204 20 58 0.0 1.6 0.00 0.00 0.00 47 1007.2
20260504032204 21 117 0.0 3.2 0.00 0.00 0.00 47 1007.2
20260504031704 21 129 0.0 3.2 0.00 0.00 0.00 47 1007.3
20260504031203 21 222 0.0 3.2 0.00 0.00 0.00 45 1007.3
20260504025204 22 96 0.0 1.6 0.00 0.00 0.00 45 1007.3
20260504023704 22 166 0.0 3.2 0.00 0.00 0.00 46 1007.2
20260504023204 22 70 1.6 3.2 0.00 0.00 0.00 45 1007.3
20260504022703 22 50 0.0 3.2 0.00 0.00 0.00 45 1007.3
20260504022203 22 50 0.0 1.6 0.00 0.00 0.00 44 1007.3
20260504021703 22 50 0.0 3.2 0.00 0.00 0.00 43 1007.4
20260504021204 23 134 0.0 3.2 0.00 0.00 0.00 41 1007.4
20260504020203 23 10 0.0 3.2 0.00 0.00 0.00 42 1007.4
20260504015203 23 344 1.6 4.8 0.00 0.00 0.00 36 1007.5
20260504014204 23 325 0.0 3.2 0.00 0.00 0.00 38 1007.6
20260504013204 24 311 1.6 3.2 0.00 0.00 0.00 35 1007.6
20260504012703 24 331 1.6 3.2 0.00 0.00 0.00 37 1007.6
20260504012204 24 336 1.6 4.8 0.00 0.00 0.00 38 1007.7
20260504011704 24 52 1.6 3.2 0.00 0.00 0.00 38 1007.8
20260504010704 25 337 1.6 3.2 0.00 0.00 0.00 42 1007.8
20260504010204 25 96 1.6 4.8 0.00 0.00 0.00 36 1007.9
20260504005203 25 82 1.6 4.8 0.00 0.00 0.00 39 1007.9
20260504004703 25 103 1.6 8.0 0.00 0.00 0.00 40 1008.0
20260504004203 25 39 1.6 4.8 0.00 0.00 0.00 37 1008.0
20260504003703 25 319 1.6 3.2 0.00 0.00 0.00 36 1008.1
20260504002704 25 315 1.6 3.2 0.00 0.00 0.00 35 1008.1
20260504001704 25 302 0.0 3.2 0.00 0.00 0.00 40 1008.1
20260504001204 25 303 1.6 4.8 0.00 0.00 0.00 35 1008.2
20260504000704 25 36 1.6 3.2 0.00 0.00 0.00 37 1008.3
20260504000204 25 281 0.0 3.2 0.00 0.00 0.00 38 1008.3
20260503234703 25 329 0.0 1.6 0.00 0.00 0.00 39 1008.4
20260503233203 25 323 1.6 3.2 0.00 0.00 0.00 40 1008.6
20260503231204 26 284 1.6 4.8 0.00 0.00 0.00 38 1008.9
20260503230203 26 325 1.6 4.8 0.00 0.00 0.00 39 1008.9
20260503225704 26 7 0.0 3.2 0.00 0.00 0.00 40 1009.0
20260503225204 26 10 1.6 4.8 0.00 0.00 0.00 38 1009.2
20260503224204 26 295 1.6 4.8 0.00 0.00 0.00 36 1009.2
20260503223704 26 0 1.6 3.2 0.00 0.00 0.00 37 1009.3
20260503223204 26 173 1.6 4.8 0.00 0.00 0.00 35 1009.4
20260503222704 26 234 0.0 3.2 0.00 0.00 0.00 38 1009.5
20260503221704 26 334 1.6 4.8 0.00 0.00 0.00 35 1009.6
20260503221203 26 302 1.6 3.2 0.00 0.00 0.00 35 1009.7
20260503220203 26 307 1.6 4.8 0.00 0.00 0.00 35 1009.8
20260503215704 26 328 1.6 4.8 0.00 0.00 0.00 36 1009.8
20260503215203 25 216 1.6 11.3 0.00 0.00 0.00 36 1009.8
20260503214704 25 338 3.2 4.8 0.00 0.00 0.00 38 1010.0
20260503213704 25 356 0.0 3.2 0.00 0.00 0.00 38 1010.1
20260503213203 25 291 1.6 3.2 0.00 0.00 0.00 40 1010.2
20260503212704 25 4 1.6 4.8 0.00 0.00 0.00 39 1010.2
20260503212204 25 300 1.6 3.2 0.00 0.00 0.00 40 1010.2
20260503211204 25 335 1.6 3.2 0.00 0.00 0.00 43 1010.3
20260503210203 25 313 1.6 3.2 0.00 0.00 0.00 44 1010.4
20260503205204 25 237 1.6 3.2 0.00 0.00 0.00 42 1010.4
20260503204704 25 92 1.6 3.2 0.00 0.00 0.00 42 1010.5
20260503203703 25 327 1.6 3.2 0.00 0.00 0.00 41 1010.6
20260503203203 25 290 1.6 4.8 0.00 0.00 0.00 40 1010.6
20260503202204 25 332 0.0 3.2 0.00 0.00 0.00 40 1010.7
20260503201703 25 348 1.6 4.8 0.00 0.00 0.00 41 1010.8
20260503201203 25 299 1.6 3.2 0.00 0.00 0.00 42 1010.8
20260503200703 25 273 1.6 3.2 0.00 0.00 0.00 41 1011.0
20260503194706 24 335 1.6 4.8 0.00 0.00 0.00 43 1011.2
20260503194204 24 320 0.0 3.2 0.00 0.00 0.00 44 1011.2
20260503193704 24 316 1.6 1.6 0.00 0.00 0.00 44 1011.3
20260503193204 24 325 0.0 4.8 0.00 0.00 0.00 45 1011.3
20260503192704 24 34 1.6 3.2 0.00 0.00 0.00 46 1011.4
20260503191204 23 318 0.0 3.2 0.00 0.00 0.00 46 1011.4
20260503190704 23 312 0.0 1.6 0.00 0.00 0.00 48 1011.5
20260503185204 22 315 0.0 3.2 0.00 0.00 0.00 49 1011.6
20260503184704 22 315 0.0 3.2 0.00 0.00 0.00 49 1011.7
20260503183704 22 173 1.6 4.8 0.00 0.00 0.00 50 1011.8
20260503183204 22 300 1.6 4.8 0.00 0.00 0.00 49 1011.9
20260503181703 21 308 1.6 4.8 0.00 0.00 0.00 51 1012.0
20260503181204 21 281 1.6 4.8 0.00 0.00 0.00 54 1012.0
20260503180204 21 273 3.2 4.8 0.00 0.00 0.00 53 1012.0
20260503175704 21 240 0.0 4.8 0.00 0.00 0.00 55 1012.0
20260503175204 20 311 1.6 4.8 0.00 0.00 0.00 55 1012.1
20260503174704 20 316 1.6 4.8 0.00 0.00 0.00 56 1012.2
20260503174204 20 193 1.6 3.2 0.00 0.00 0.00 55 1012.2
20260503173704 20 35 1.6 4.8 0.00 0.00 0.00 56 1012.2
20260503173204 20 15 1.6 3.2 0.00 0.00 0.00 56 1012.3
20260503172705 19 312 1.6 4.8 0.00 0.00 0.00 58 1012.4
20260503170205 18 288 0.0 3.2 0.00 0.00 0.00 65 1012.4
20260503131204 15 22 0.0 3.2 0.00 0.00 0.00 68 1012.1
20260503110704 15 265 0.0 3.2 0.00 0.00 0.00 64 1012.4
20260503110204 15 265 0.0 3.2 0.00 0.00 0.00 64 1012.3
20260503100204 13 17 0.0 3.2 0.00 0.00 0.00 75 1012.7
20260503090203 15 17 0.0 3.2 0.00 0.00 0.00 66 1012.5
20260503081204 17 121 0.0 3.2 0.00 0.00 0.00 56 1012.5
20260503080704 17 121 0.0 3.2 0.00 0.00 0.00 58 1012.4
20260503071204 17 39 0.0 3.2 0.00 0.00 0.00 58 1012.2
20260503060204 17 148 0.0 3.2 0.00 0.00 0.00 57 1012.4
20260503053204 17 102 0.0 1.6 0.00 0.00 0.00 58 1012.3
20260503052703 17 102 0.0 3.2 0.00 0.00 0.00 57 1012.3
20260503050704 17 88 1.6 3.2 0.00 0.00 0.00 57 1012.2
20260503050204 17 107 0.0 3.2 0.00 0.00 0.00 56 1012.2
20260503045704 17 88 0.0 3.2 0.00 0.00 0.00 57 1012.2